sat.trackr.live / text

‹ back to catalog

STARLINK-5582

NORAD 56777 · 2023-078L

PAYLOAD ACTIVE UNKNOWN

§ Identity

Operator
Country
US
Launch date
2023-05-31
Launch site
AFWTR
Launch vehicle
Mass (kg)
RCS (m²)

Purposes: comms

External: N2YO · Heavens-Above · Gunter

§ Orbital elements

Epoch: 2026-05-25T02:51:42.933024Z

Period
96.11 min
Inclination
69.9992°
Eccentricity
0.0003335
Mean motion
14.98328636 rev/d
Perigee alt
569.7 km
Apogee alt
574.4 km
Semi-major
6,950.2 km
B*
-3.2093e-5
RAAN
151.9521°
Arg perigee
265.8832°
Mean anomaly
94.1946°
Rev number
16,412

§ Raw data

STARLINK-55821 56777U 23078L   26145.11924691 -.00000476  00000+0 -32093-4 0  99922 56777  69.9992 151.9521 0003335 265.8832  94.1946 14.98328636164127

JSON: /api/v1/satellites/56777 · /tle

For live sub-satellite position, see the globe view (requires WebGL).

§ Visibility from observer

Set your observer location to see the next 7 days of passes ≥ 10°. The values pass through the URL so the page stays shareable.

No JS? Fill the form by hand. The geolocation button needs JavaScript.